TimeEST,TemperatureF,Dew PointF,Humidity,Sea Level PressureIn,VisibilityMPH,Wind Direction,Wind SpeedMPH,Gust SpeedMPH,PrecipitationIn,Events,Conditions,WindDirDegrees,DateUTC
12:56 AM,36.0,26.1,67,30.12,-9999.0,South,3.5,-,N/A,,Clear,180,2013-01-24 05:56:00
1:56 AM,35.1,27.0,72,30.08,-9999.0,South,8.1,-,N/A,,Clear,190,2013-01-24 06:56:00
2:56 AM,37.9,30.9,76,30.04,-9999.0,South,6.9,-,N/A,,Clear,190,2013-01-24 07:56:00
3:56 AM,44.1,36.0,73,30.01,-9999.0,SW,10.4,-,N/A,,Clear,220,2013-01-24 08:56:00
4:56 AM,46.0,34.0,63,30.00,-9999.0,WSW,13.8,-,N/A,,Clear,250,2013-01-24 09:56:00
5:56 AM,46.0,35.1,66,30.00,-9999.0,West,15.0,-,N/A,,Clear,260,2013-01-24 10:56:00
6:56 AM,44.1,35.1,71,30.01,-9999.0,West,13.8,-,N/A,,Clear,260,2013-01-24 11:56:00
7:56 AM,45.0,35.1,68,30.04,-9999.0,WNW,19.6,27.6,N/A,,Clear,290,2013-01-24 12:56:00
8:56 AM,41.0,25.0,53,30.12,-9999.0,NNW,17.3,29.9,N/A,,Clear,340,2013-01-24 13:56:00
9:56 AM,39.9,24.1,53,30.17,-9999.0,NNW,26.5,36.8,N/A,,Clear,340,2013-01-24 14:56:00
12:56 PM,37.9,19.0,47,30.25,-9999.0,North,26.5,33.4,0.00,,Partly Cloudy,350,2013-01-24 17:56:00
1:56 PM,36.0,18.0,48,30.29,-9999.0,NNW,31.1,38.0,N/A,,Scattered Clouds,340,2013-01-24 18:56:00
2:56 PM,34.0,12.9,42,30.34,-9999.0,North,26.5,36.8,N/A,,Partly Cloudy,350,2013-01-24 19:56:00
3:56 PM,34.0,12.0,40,30.38,-9999.0,North,24.2,35.7,N/A,,Clear,350,2013-01-24 20:56:00
4:56 PM,32.0,10.0,40,30.43,-9999.0,North,20.7,29.9,N/A,,Clear,360,2013-01-24 21:56:00
5:56 PM,30.9,8.1,38,30.48,-9999.0,North,19.6,28.8,N/A,,Clear,360,2013-01-24 22:56:00
6:56 PM,30.0,9.0,41,30.50,-9999.0,North,11.5,21.9,N/A,,Clear,360,2013-01-24 23:56:00
7:56 PM,30.0,9.0,41,30.51,-9999.0,North,12.7,-,N/A,,Clear,10,2013-01-25 00:56:00
8:56 PM,30.0,8.1,40,30.53,-9999.0,North,15.0,23.0,N/A,,Clear,360,2013-01-25 01:56:00
9:56 PM,30.0,8.1,40,30.53,-9999.0,North,13.8,-,N/A,,Clear,360,2013-01-25 02:56:00
10:56 PM,28.9,8.1,41,30.53,-9999.0,NNE,12.7,21.9,0.00,,Clear,20,2013-01-25 03:56:00
11:56 PM,28.9,7.0,40,30.52,-9999.0,North,13.8,21.9,N/A,,Clear,10,2013-01-25 04:56:00